Location: Neuvy Saint Sepulchre
(46.5953°N, 1.8122°E)
Time: 09:45:15
(UTC+02:00)

ISS - Pass Details

Date: 25 March 2024
Orbit: 413 x 419 km, 51.6° (Epoch: 13 April)

Event Time Altitude Azimuth Distance (km) Brightness Sun altitude
Rises 22:13:05 0° 293° (WNW) 2,369 1.1 -29.1°
Reaches altitude 10° 22:15:16 10° 285° (WNW) 1,504 -0.2 -29.4°
Enters shadow 22:15:47 13° 281° (W) 1,313 -0.6 -29.5°
